Location: Newark
(49.9819°N, 3.0344°E)
Time: 00:58:55
(UTC+00:00)

ISS - Pass Details

Date: 27 January 2020
Orbit: 416 x 422 km, 51.6° (Epoch: 21 February)

Event Time Altitude Azimuth Distance (km) Brightness Sun altitude
Rises 18:10:31 0° 259° (W) 2,376 2.0 -15.6°
Reaches altitude 10° 18:12:37 10° 261° (W) 1,511 0.4 -15.9°
Maximum altitude 18:16:01 77° 348° (NNW) 440 -3.8 -16.5°
Enters shadow 18:16:59 43° 65° (ENE) 603 -3.5 -16.6°
